Presure
150 82 128 116 147 157 135 115 146 169 140 164 128 161 158 160 156 151 148 147 136 149 133 136 132 136 134 135 132 140 144 156 159 127 143 159 144 150 156 145 112 140 89 135 107 132 88 140 142
153 150 108 93 162 130 162 127 166 137 98 132 148 155 155 132 111 118 152 140 148 155 132 141 142 129 120 99 148 144 137 118 147 153 143 159 112 148 149 150 109 145 140 82 124 83 107 124 155
157 163 152 157 154 159 158 159 120 127 151 157 146 146 144 126 107 128 139 148 154 148 111 133 106 123 120 120 132 128 130 143 144 140 123 150 127 148 143 136 143 139 157 156 145 164 147 173 157
96 155 141 153 155 156 174 174 174 172 109 166 156 118 136 100 101 133 95 138 113 132 135 89 131 136 147 140 127 140 146 100 144 147 140 154 129 125 171 144 145 137 125 161 168 128 134 138 184
161 156 144 163 162 171 92 162 160 98 131 157 171 123 142 110 123 156 134 139 89 93 151 153 134 134 115 142 138 151 136 133 143 138 139 141 135 135 130 141 161 125 161 144 156 191 174 171 174
167 158 157 164 165 176 144 105 108 156 106 146 141 144 149 139 128 137 132 150 107 89 123 140 154 146 158 126 154 149 142 140 148 134 123 117 132 146 142 145 134 112 160 171 178 157 169 160 162
178 168 142 94 167 79 151 167 179 158 129 159 111 103 121 174 98 104 142 96 96 91 90 90 100 150 108 117 128 116 130 107 125 96 96 136 98 118 162 121 112 181 94 129 134 170 161 144 163
201 207 155 170 221 179 184 185 84 211 232 106 185 147 185 87 115 133 98 185 98 93 105 89 99 100 124 129 87 102 90 90 88 85 83 87 89 90 138 112 156 133 95 95 181 144 166 149 156
193 175 179 222 230 200 231 229 86 225 225 224 86 231 221 163 129 126 227 97 206 103 97 85 85 100 139 100 146 105 92 88 86 84 85 106 84 99 83 88 119 124 146 146 157 124 190 167 171
202 205 222 210 216 218 226 216 84 202 204 185 210 89 139 93 174 223 145 98 95 94 88 97 94 96 93 91 130 82 86 85 85 86 84 85 88 114 82 88 88 86 88 133 127 100 91 160 177
181 216 203 191 83 214 201 161 207 183 199 200 183 158 155 89 210 118 100 201 228 96 110 96 90 89 93 96 93 128 86 93 89 106 83 89 85 129 120 79 78 158 89 110 98 175 94 174 187
147 183 199 164 162 105 180 186 188 188 85 99 205 82 105 116 89 93 194 86 93 91 95 101 88 89 92 94 161 129 81 84 172 103 83 81 144 82 93 112 86 106 89 168 138 101 175 97 96
198 185 184 188 214 213 200 174 177 191 179 163 191 187 83 199 196 160 137 102 144 93 90 93 90 173 89 95 96 97 104 81 82 126 119 84 83 98 92 99 117 112 87 94 84 163 94 135 185
175 204 201 198 185 215 204 186 169 200 218 203 166 87 188 99 185 175 133 87 92 182 214 99 89 93 86 92 98 174 125 177 144 111 185 184 118 116 115 138 174 127 167 95 106 91 110 173 190
212 173 195 185 210 213 188 172 176 199 242 231 209 212 228 94 97 158 213 198 198 183 93 201 84 86 92 107 101 99 219 77 84 87 104 120 124 103 96 134 103 129 103 91 99 90 170 189 108
206 214 195 207 213 229 212 196 113 99 157 221 226 213 110 212 115 87 197 84 229 168 195 90 88 104 112 109 89 97 81 121 113 107 92 100 94 81 136 127 119 188 186 95 89 182 185 125 180
211 206 213 204 187 189 222 216 229 155 195 230 219 222 220 218 207 214 166 95 123 221 79 77 167 112 83 124 180 115 108 233 141 198 92 87 113 116 104 110 109 114 157 108 146 182 185 109 150
206 205 207 204 213 195 206 219 203 247 231 241 233 225 218 214 216 219 209 257 183 98 170 238 205 77 104 187 174 171 211 213 132 85 93 113 110 102 108 110 107 113 114 122 126 119 110 106 182
205 205 207 202 208 220 224 222 230 228 247 235 232 233 103 211 207 206 226 210 242 247 95 241 90 208 90 99 94 97 96 93 88 97 98 102 113 103 84 111 84 109 114 192 162 197 110 109 195
205 208 203 209 209 219 219 226 227 223 236 232 235 238 232 226 104 154 216 216 218 213 243 132 111 117 92 93 93 97 101 104 108 115 117 117 104 101 98 114 99 198 105 198 196 189 127 119 199
208 213 213 217 213 216 218 222 225 223 235 236 226 227 233 158 225 216 187 204 123 248 187 189 243 246 239 208 194 194 181 143 105 111 116 93 118 117 215 112 112 153 97 200 192 184 195 118 195
214 226 228 220 224 226 231 246 223 234 223 231 231 209 223 230 234 234 110 212 203 276 293 239 236 237 245 235 209 194 136 174 167 191 208 108 195 85 105 117 108 101 191 190 189 214 203 199 204
233 231 230 236 237 246 248 250 252 239 235 225 219 221 231 232 93 229 228 212 231 279 281 279 234 229 239 242 229 84 106 186 103 185 206 198 186 209 194 198 193 194 202 214 199 202 200 202 194
245 248 254 257 259 271 257 254 253 250 237 232 246 216 223 229 230 228 228 140 265 89 127 282 235 231 235 238 76 117 190 154 152 179 192 189 198 201 184 186 217 212 209 204 198 200 199 197 195
214 220 219 231 246 265 263 272 267 253 248 168 247 234 228 233 234 231 217 235 262 233 264 271 87 84 82 238 221 201 142 195 185 171 187 188 187 183 177 184 211 198 203 202 202 201 201 200 195
228 231 238 289 321 323 297 243 75 275 257 241 237 231 240 229 226 219 220 253 256 257 261 119 125 102 225 114 189 153 185 121 188 170 188 181 186 182 184 183 180 170 206 205 200 203 203 202 202
238 282 276 269 281 282 290 272 290 276 123 127 243 234 233 242 220 216 246 250 256 249 258 260 252 224 222 232 231 214 196 190 189 177 190 181 182 187 183 180 174 173 205 204 203 204 207 203 199
251 279 302 323 314 347 313 393 223 88 230 256 272 245 248 225 220 218 237 247 247 243 249 260 251 226 220 230 229 213 192 198 189 188 186 177 188 184 185 180 177 184 205 209 209 206 203 207 202
274 264 310 276 309 331 355 402 383 93 262 262 263 223 240 214 212 216 228 237 241 243 243 136 251 229 219 225 232 212 192 197 189 181 188 180 187 180 184 180 175 207 204 204 205 206 202 201 194
290 294 290 293 316 338 359 409 352 378 232 124 258 266 236 223 230 216 223 233 235 238 245 250 260 229 220 222 232 210 196 193 185 183 189 180 185 180 174 182 173 205 205 209 212 194 187 186 185
Wind_Speed
63 30 53 42 57 67 51 43 50 66 53 60 45 50 51 55 55 49 49 47 43 49 41 40 37 37 36 35 36 35 36 39 39 32 36 41 38 40 41 38 22 39 11 35 21 35 16 45 48
71 64 44 36 72 57 69 52 69 50 28 55 50 49 51 48 31 34 53 47 49 55 43 46 44 37 26 7 39 38 34 26 37 38 35 41 22 39 42 41 22 42 42 11 37 14 28 37 53
70 74 61 68 68 75 68 65 46 52 56 57 58 56 56 47 32 44 50 54 59 51 26 44 19 28 28 31 38 34 37 39 39 37 29 37 33 39 38 41 42 40 49 50 49 58 51 58 53
41 67 61 66 70 73 86 83 79 75 41 72 59 45 55 29 27 50 20 53 28 44 43 10 44 44 48 43 38 42 43 6 38 40 35 41 36 33 51 45 47 41 34 55 59 40 44 46 55
77 70 66 82 81 85 35 68 66 33 54 65 77 47 63 34 43 61 53 57 20 18 59 57 43 45 23 46 44 50 43 40 40 36 35 37 37 39 36 44 50 33 54 46 53 62 55 56 59
88 75 74 90 85 95 65 43 42 66 40 63 57 60 60 58 46 56 50 62 29 18 39 50 58 51 59 35 56 50 46 43 45 35 24 21 35 44 44 46 41 24 55 60 56 56 56 57 61
100 90 66 26 91 21 64 71 91 70 58 71 46 44 49 80 33 36 60 32 28 21 18 17 12 57 18 24 36 25 35 12 32 3 5 39 8 27 62 31 23 67 23 40 44 59 55 54 60
82 75 75 96 79 98 90 87 34 68 74 45 93 65 88 26 46 50 34 82 30 22 27 23 17 17 36 40 13 18 7 6 5 7 8 9 12 13 42 24 58 42 21 22 71 50 61 54 59
76 75 76 73 70 89 69 65 32 64 67 67 29 70 76 58 45 46 80 30 82 30 23 22 20 20 49 27 53 22 13 9 11 10 11 22 12 22 18 19 34 34 53 56 61 41 74 66 72
71 74 70 74 71 70 68 66 30 64 65 61 68 33 43 35 63 72 46 33 30 31 26 25 23 20 16 18 42 15 14 14 15 15 14 14 15 31 21 23 24 26 29 42 46 32 33 64 76
70 70 73 74 11 70 61 48 62 54 67 68 63 56 55 34 72 43 36 72 78 34 39 29 24 23 23 22 20 46 17 21 18 31 18 19 18 42 33 20 21 65 31 42 35 74 36 73 78
66 73 72 59 59 28 52 51 55 57 24 39 68 33 50 52 29 34 68 34 37 33 32 35 30 27 25 25 69 51 19 22 76 30 21 19 53 23 29 34 28 33 33 71 53 37 74 41 42
73 74 73 74 71 71 63 50 48 60 66 53 61 57 37 63 66 54 57 43 54 37 35 35 33 60 28 30 32 30 32 22 23 46 39 24 26 32 31 35 43 43 33 38 34 64 42 57 76
68 72 77 70 71 70 68 56 52 66 61 62 54 42 58 47 59 60 48 40 43 63 74 39 33 36 28 32 34 67 42 71 55 38 77 75 39 35 40 55 73 52 73 40 46 43 49 73 75
69 64 78 70 74 69 62 57 58 64 57 61 66 66 62 48 49 45 71 72 72 64 41 66 23 31 35 39 35 32 87 24 31 30 40 42 41 36 39 52 42 45 44 42 44 46 73 78 49
69 66 78 72 66 60 66 64 56 36 46 61 61 65 44 64 44 34 73 33 75 63 72 40 31 40 40 39 33 33 30 47 42 39 32 38 37 33 49 44 42 76 77 45 47 76 78 53 76
70 72 69 75 73 73 61 59 63 46 67 60 62 61 63 65 68 69 53 43 48 76 37 25 58 51 32 54 63 48 44 72 55 72 35 37 44 42 41 41 44 46 63 49 61 77 77 48 63
72 71 71 74 76 75 70 58 70 58 59 58 59 61 64 68 68 66 68 58 73 42 66 76 74 32 48 60 59 59 61 61 55 37 41 45 44 45 46 44 45 47 50 56 59 56 50 48 75
76 75 74 74 76 75 67 53 55 61 56 57 58 62 60 69 71 67 62 66 64 72 47 75 42 76 40 43 41 41 43 37 38 46 46 45 47 47 42 48 45 46 51 74 67 74 53 54 74
76 80 77 79 80 75 69 56 57 60 59 60 60 60 64 67 62 64 66 63 66 65 75 53 50 53 43 42 44 47 51 50 48 52 51 54 48 48 50 53 50 62 49 68 69 70 59 65 71
81 82 82 82 78 72 72 59 63 60 61 61 63 63 62 40 67 72 67 66 63 52 66 68 71 70 71 75 67 64 56 57 50 53 52 46 56 59 47 53 53 56 55 64 65 68 70 68 70
77 86 86 78 81 80 83 71 67 68 61 62 65 69 67 66 66 69 29 67 74 51 53 73 72 69 67 70 72 65 61 58 61 57 51 47 51 52 54 61 53 56 60 63 67 63 67 68 65
84 86 87 89 88 88 83 81 66 71 70 68 71 71 69 70 24 69 70 68 63 51 52 57 72 70 67 67 69 33 51 63 50 58 50 51 51 51 51 52 55 59 65 60 66 66 67 67 69
81 83 85 87 88 84 78 81 59 67 72 72 70 76 72 70 70 70 70 37 51 37 43 52 72 71 66 65 32 44 64 58 56 56 54 52 50 47 50 53 57 57 59 62 66 66 68 69 71
61 67 68 76 82 81 84 87 70 69 70 62 74 73 73 71 70 69 70 61 51 54 53 50 39 38 38 64 67 64 56 63 60 56 56 53 52 53 55 55 55 59 62 65 66 69 71 72 74
73 77 83 87 81 77 74 47 16 53 62 73 77 78 71 71 70 70 69 56 55 53 53 48 39 41 66 53 59 55 59 56 59 56 57 56 54 56 56 56 57 60 63 67 69 71 72 74 78
74 73 78 75 69 64 62 55 54 57 32 10 70 84 76 70 71 71 56 55 55 55 52 53 57 69 67 61 61 62 63 60 59 57 57 57 57 57 58 59 60 61 66 69 70 73 76 77 78
70 51 45 31 44 30 28 34 21 23 57 72 77 80 77 73 70 69 51 51 53 56 53 51 56 67 65 62 61 61 60 60 59 57 57 58 57 58 60 61 62 64 68 70 73 74 76 79 79
50 57 29 54 35 41 42 35 26 10 76 81 75 69 81 78 75 70 54 49 52 56 54 32 53 64 64 62 60 60 59 60 58 57 57 59 58 60 61 62 63 66 67 70 73 75 75 77 78
25 30 32 36 41 46 42 15 30 34 24 35 80 79 84 83 64 69 58 52 53 53 53 50 50 62 63 60 59 60 60 58 56 56 57 59 59 61 63 62 64 66 69 72 75 73 76 79 83
Wind_Direction
249 234 241 246 245 257 248 235 238 263 224 251 245 249 249 252 251 255 253 248 226 250 242 241 245 247 246 249 250 259 266 270 267 267 271 270 273 272 271 272 276 274 286 271 283 276 299 272 271
253 249 241 229 258 241 257 241 258 253 242 228 236 242 245 245 232 236 255 246 247 254 242 249 247 241 242 217 261 258 259 263 268 275 272 274 270 268 276 275 274 277 278 285 278 291 282 286 280
254 256 252 257 256 255 254 254 239 238 240 249 231 242 229 248 234 241 242 251 257 243 232 242 233 251 243 248 249 251 254 261 263 263 267 275 271 278 276 277 277 276 278 278 278 279 277 282 280
235 255 243 256 254 257 260 260 260 262 238 258 245 233 236 232 228 243 221 243 235 235 245 210 244 244 253 248 246 253 261 233 264 264 263 273 268 276 276 277 279 281 290 278 278 290 285 282 287
256 255 255 261 258 256 225 258 256 232 258 249 260 237 234 238 243 244 243 243 211 222 254 249 239 247 248 249 247 256 252 254 260 258 261 263 266 268 275 275 276 287 280 284 280 285 279 277 286
257 254 255 259 258 262 239 234 231 254 235 256 249 252 250 237 242 235 244 241 230 221 246 243 247 242 249 246 253 254 252 255 262 258 269 279 268 269 268 275 276 298 282 281 285 278 281 281 277
254 258 243 237 258 233 247 262 264 260 242 257 225 230 237 262 227 225 241 222 218 211 223 225 227 244 240 259 247 249 252 251 258 299 306 261 315 278 279 283 298 282 303 289 287 284 281 283 290
253 256 251 260 256 262 264 267 227 248 249 244 262 258 261 233 236 247 220 259 222 218 225 221 231 227 250 250 236 253 229 236 266 288 304 317 321 313 269 291 280 281 306 304 286 280 290 287 292
253 256 254 253 251 260 253 251 234 250 250 248 242 246 251 248 240 245 250 222 251 225 217 226 225 245 252 251 250 240 230 246 267 279 286 273 298 287 309 309 287 290 282 286 287 289 287 290 293
256 258 252 253 251 252 251 252 239 258 256 251 251 240 248 238 246 249 244 230 228 228 231 228 233 239 217 225 255 252 250 258 264 270 278 288 293 277 299 302 303 307 307 288 293 301 306 290 291
251 254 253 255 251 252 254 255 254 249 256 255 251 245 246 241 253 234 228 253 248 222 234 226 231 232 235 240 241 252 256 264 263 271 276 285 287 274 283 301 307 281 303 296 301 285 303 291 289
241 252 253 247 247 263 258 257 257 257 235 238 253 238 231 234 227 225 254 232 233 229 222 225 232 236 236 246 255 258 255 260 265 267 275 283 270 290 291 285 299 289 302 282 286 296 288 300 303
251 251 253 256 253 254 252 247 253 255 257 247 259 257 240 256 253 250 245 229 243 231 228 226 232 253 236 245 248 252 258 264 267 263 268 281 284 284 285 286 280 289 303 297 307 287 301 292 288
248 247 253 254 256 254 256 253 244 252 253 257 249 237 245 239 256 254 245 229 235 256 254 229 231 235 241 241 248 257 262 260 260 265 264 266 271 276 283 279 274 282 278 294 294 301 294 288 289
245 251 252 256 253 256 256 253 252 263 253 250 253 252 248 236 237 240 249 254 254 253 231 255 252 243 239 257 249 254 257 272 266 274 271 267 272 281 283 277 282 290 283 294 297 301 285 287 294
248 247 250 253 252 260 257 258 250 242 248 249 251 252 247 247 242 230 250 235 248 243 253 234 239 255 244 254 252 260 265 263 264 267 275 278 278 279 280 286 289 274 272 291 297 281 283 295 287
249 250 254 251 255 258 259 253 261 258 255 251 249 249 249 248 246 246 246 238 247 248 241 244 250 255 252 256 257 260 261 262 260 264 273 269 277 277 281 285 286 293 282 295 287 281 283 299 292
248 250 252 254 258 254 256 253 260 267 258 259 252 248 248 248 246 245 247 250 256 237 250 246 248 253 251 253 256 259 260 261 261 265 274 278 277 278 281 285 284 292 295 295 293 294 296 297 287
248 250 252 256 257 260 260 256 264 264 266 259 256 250 242 249 249 247 249 246 251 249 239 247 242 248 251 257 257 260 262 262 263 271 274 275 276 276 283 284 292 286 291 273 283 279 295 295 287
251 252 256 255 257 260 263 261 262 260 263 259 258 256 251 248 246 246 248 247 249 247 249 246 249 251 256 258 260 262 264 267 267 269 271 272 270 276 273 284 285 273 286 274 275 278 291 298 287
251 253 256 257 261 262 260 258 261 260 263 257 255 254 254 247 248 248 248 244 249 245 245 248 246 246 243 249 254 255 258 262 265 267 269 276 273 276 273 282 283 280 285 274 277 279 282 297 284
258 258 259 263 264 263 265 259 261 262 257 256 254 248 251 251 251 251 230 244 247 244 240 244 245 244 243 243 248 255 260 262 264 268 270 280 270 292 279 282 283 284 276 278 280 279 281 282 281
261 262 266 267 268 267 268 268 260 259 255 249 245 246 248 249 260 250 251 245 249 241 240 233 241 242 240 240 242 283 263 259 262 268 269 272 274 276 277 277 278 279 279 277 280 280 282 282 283
266 266 266 267 267 267 264 263 254 255 252 249 251 242 244 247 249 250 253 242 245 237 249 233 238 240 239 238 279 266 253 262 268 268 268 271 274 274 276 278 274 276 277 278 280 280 281 281 282
271 272 272 271 271 270 265 262 258 251 246 248 247 241 240 244 247 250 250 253 239 242 238 233 257 258 264 236 240 245 261 254 261 265 267 269 273 276 278 281 276 281 278 279 280 280 281 281 284
275 273 272 275 275 271 265 265 247 236 238 237 242 241 239 241 244 249 252 244 241 239 238 239 249 255 238 255 245 253 253 265 257 264 267 271 272 276 278 281 284 285 280 280 284 283 283 284 284
274 279 279 278 276 268 262 251 245 235 261 18 237 237 236 235 241 244 246 243 239 241 240 233 224 231 235 235 236 240 247 252 255 263 264 270 273 275 278 281 284 289 284 284 285 285 285 285 286
283 285 285 309 280 321 302 272 265 267 232 229 230 233 234 231 239 242 241 238 240 243 240 238 226 229 234 234 233 236 247 248 254 259 265 270 271 276 278 283 288 289 286 286 287 287 287 288 288
282 295 318 298 315 332 322 306 253 297 223 225 222 229 232 240 238 240 239 234 238 240 242 255 226 227 232 234 233 236 245 247 254 261 263 270 272 278 280 285 289 286 288 288 287 288 289 290 290
314 336 337 343 341 334 314 327 236 235 247 238 222 221 228 237 225 238 235 234 234 238 240 239 229 223 230 233 233 236 243 247 256 262 264 271 273 278 284 286 290 288 288 288 289 290 291 291 292